Terminal Aerodrome Forecast
Issued by NWS

Home | Current Version | Previous Version | Text Only | Print | Product List | Glossary On
Versions: 1 2 3 4 5 6 7 8 9 10 11 12 13 14 15 16 17 18 19 20 21 22 23 24 25 26 27 28
000
FTUS45 KBYZ 231729
TAFLVM
TAF
KLVM 231729Z 2318/2418 21019G25KT P6SM FEW100
     FM240100 28015KT P6SM SCT100=

USA.gov is the U.S. government's official web portal to all federal, state and local government web resources and services.